COSMOS 2251 DEB, 40793

Orbit data source: Space-Track

COSMOS 2251 DEB, 40793 is space debris in LEO originally from a launch on Wed, 16 Jun 1993 UTC launched from the Plesetsk Missile And Space Complex (PKMTR). The debris from Iridium 33, an American commercial communications satellite, has been tracked extensively since its accidental collision with the defunct Russian satellite Cosmos 2251 in 2009. This event, occurring at high speed in low Earth orbit (LEO), generated thousands of pieces of space debris, significantly increasing the risk of further collisions. The Iridium 33 debris cloud has impacted space traffic management and orbital debris mitigation strategies, making it a subject of ongoing study in space situational awareness.

Loading next visibility...
Identifier
40793, 1993-036BVW
Orbit
LEO
Country
Flag of CISCIS
Related business
Manufacturer
Unknown
Mission
Spacecraft
Bus & Motor
Unknown
Mass
Unknown
Launch date (UTC)
1993-06-16 (33 years ago)
Launch vehicle
Unknown
Launch site
Plesetsk Missile And Space Complex (PKMTR)
Object type
Payload
Rocket body
Debris
Shape & HBR
Unknown shape, 0.1 m
Radar Cross Section
Small (<0.1 m²)

Expand to show TLE details & history
Last TLE update: 1 month ago

TLE from 1 month ago
0 COSMOS 2251 DEB
1 40793U 93036BVW 25321.95773650  .00003024  00000-0  15212-2 0  9991
2 40793  73.9793 208.5839 0215061  10.0580 350.4754 14.05591490678970
Epoch: 2025-11-17T22:59Z
TLE epoch observation values (Epoch: 2025-11-17T22:59:08.433Z)
Latitude
-0.00011°
Longitude
166.54801°
Altitude
723.313 km
Speed
7.573 km/s
True Right ascension
13h 54m 20s
True Declination
0° 00' 00"
Sunlit
Object was in daylight at epoch
Visualization orbit readout
Latitude
Unknown
Longitude
Unknown
Altitude
Unknown
Speed
Unknown
Apparent Right ascension
Unknown
Apparent Declination
Unknown
Sunlit
N/A
Visualization observer readout
Local Sidereal Time
00:11:39
Azimuth
Unknown
Elevation
Unknown
Doppler factor
Unknown
Orbital elements
Apogee altitude
1,028.084 km
Perigee altitude
716.232 km
Semi-major axis
7,250.295 km
Eccentricity
0.02151
Inclination
73.9793°
RAAN
208.5839°
Arg. of periapsis
10.058°
True anomaly
350.05652°
Mean anomaly
350.4754°
Eccentric anomaly
350.26709°
Mean motion
3.51568 °/min
Orbital period
102.4 mins
BSTAR
0.0015212

Documentation

Showing up to 5 results
|